| time (UTC) | temp C | wind direction | speed KPH | gust KPH | rain 1hr cm | rain 24hr cm | rain mn cm | humidity % | barometer mb |
| 20260906023003 | 17 | 275 | 0.0 | 4.8 | 0.00 | 0.03 | 0.03 | 62 | 1015.8 |
| 20260906021504 | 18 | 14 | 0.0 | 1.6 | 0.00 | 0.03 | 0.03 | 59 | 1015.8 |
| 20260906020004 | 18 | 285 | 0.0 | 3.2 | 0.00 | 0.03 | 0.03 | 57 | 1015.8 |
| 20260906014510 | 18 | 298 | 0.0 | 4.8 | 0.00 | 0.03 | 0.03 | 57 | 1015.8 |
| 20260906013007 | 18 | 284 | 0.0 | 4.8 | 0.00 | 0.03 | 0.03 | 55 | 1015.9 |
| 20260906011504 | 20 | 307 | 0.0 | 4.8 | 0.00 | 0.03 | 0.03 | 53 | 1015.9 |
| 20260906010003 | 20 | 288 | 0.0 | 4.8 | 0.00 | 0.03 | 0.03 | 49 | 1015.9 |
| 20260906004504 | 20 | 34 | 0.0 | 4.8 | 0.00 | 0.03 | 0.03 | 48 | 1015.9 |
| 20260906003004 | 21 | 293 | 0.0 | 6.4 | 0.00 | 0.03 | 0.03 | 48 | 1015.8 |
| 20260906001504 | 21 | 302 | 0.0 | 3.2 | 0.00 | 0.03 | 0.03 | 46 | 1015.8 |
| 20260906000008 | 21 | 276 | 0.0 | 6.4 | 0.00 | 0.03 | 0.03 | 47 | 1015.8 |
| 20260905234508 | 22 | 300 | 0.0 | 3.2 | 0.00 | 0.03 | 0.03 | 42 | 1015.7 |
| 20260905233007 | 22 | 143 | 0.0 | 6.4 | 0.00 | 0.03 | 0.03 | 44 | 1015.8 |
| 20260905231506 | 21 | 60 | 0.0 | 4.8 | 0.00 | 0.03 | 0.03 | 45 | 1015.8 |
| 20260905230007 | 21 | 295 | 0.0 | 4.8 | 0.00 | 0.03 | 0.03 | 46 | 1016.0 |
| 20260905224520 | 20 | 11 | 0.0 | 8.0 | 0.00 | 0.03 | 0.03 | 49 | 1016.1 |
| 20260905223009 | 21 | 327 | 0.0 | 1.6 | 0.00 | 0.03 | 0.03 | 49 | 1016.2 |
| 20260905221511 | 21 | 298 | 0.0 | 4.8 | 0.00 | 0.03 | 0.03 | 48 | 1016.3 |
| 20260905220016 | 21 | 306 | 0.0 | 4.8 | 0.00 | 0.05 | 0.03 | 47 | 1016.5 |
| 20260905214514 | 21 | 165 | 0.0 | 6.4 | 0.00 | 0.05 | 0.03 | 47 | 1016.6 |
| 20260905213032 | 21 | 188 | 0.0 | 3.2 | 0.00 | 0.10 | 0.03 | 53 | 1016.7 |
| 20260905211513 | 20 | 324 | 0.0 | 3.2 | 0.00 | 0.18 | 0.03 | 55 | 1016.8 |
| 20260905210015 | 20 | 326 | 0.0 | 4.8 | 0.00 | 0.18 | 0.03 | 53 | 1017.0 |
| 20260905204518 | 20 | 14 | 0.0 | 0.0 | 0.00 | 0.18 | 0.03 | 54 | 1017.1 |
| 20260905203018 | 20 | 319 | 0.0 | 0.0 | 0.00 | 0.18 | 0.03 | 54 | 1017.1 |
| 20260905201516 | 19 | 48 | 0.0 | 0.0 | 0.00 | 0.18 | 0.03 | 58 | 1017.1 |
| 20260905200021 | 18 | 284 | 0.0 | 4.8 | 0.00 | 0.18 | 0.03 | 60 | 1017.2 |
| 20260905194517 | 18 | 278 | 0.0 | 1.6 | 0.00 | 0.18 | 0.03 | 59 | 1017.3 |
| 20260905193016 | 18 | 167 | 0.0 | 1.6 | 0.00 | 0.18 | 0.03 | 60 | 1017.4 |
| 20260905191518 | 18 | 152 | 0.0 | 3.2 | 0.00 | 0.18 | 0.03 | 63 | 1017.6 |
| 20260905190019 | 17 | 115 | 0.0 | 0.0 | 0.00 | 0.20 | 0.03 | 64 | 1017.6 |
| 20260905184521 | 17 | 115 | 0.0 | 0.0 | 0.00 | 0.20 | 0.03 | 66 | 1017.6 |
| 20260905183024 | 16 | 294 | 0.0 | 1.6 | 0.00 | 0.20 | 0.03 | 67 | 1017.7 |
| 20260905181505 | 16 | 131 | 0.0 | 0.0 | 0.00 | 0.20 | 0.03 | 66 | 1017.7 |
| 20260905180005 | 16 | 132 | 0.0 | 0.0 | 0.00 | 0.20 | 0.03 | 67 | 1017.6 |
| 20260905174508 | 16 | 131 | 0.0 | 1.6 | 0.00 | 0.20 | 0.03 | 68 | 1017.7 |
| 20260905173023 | 15 | 119 | 0.0 | 0.0 | 0.00 | 0.20 | 0.03 | 69 | 1017.7 |
| 20260905171524 | 15 | 114 | 0.0 | 1.6 | 0.00 | 0.20 | 0.03 | 71 | 1017.8 |
| 20260905170014 | 15 | 293 | 0.0 | 1.6 | 0.00 | 0.20 | 0.03 | 71 | 1017.8 |
| 20260905164510 | 15 | 148 | 0.0 | 0.0 | 0.00 | 0.20 | 0.03 | 72 | 1017.7 |
| 20260905163010 | 14 | 148 | 0.0 | 0.0 | 0.00 | 0.20 | 0.03 | 72 | 1017.7 |
| 20260905161506 | 14 | 148 | 0.0 | 0.0 | 0.00 | 0.20 | 0.03 | 73 | 1017.8 |
| 20260905160012 | 13 | 147 | 0.0 | 0.0 | 0.00 | 0.20 | 0.03 | 74 | 1017.8 |
| 20260905154526 | 13 | 158 | 0.0 | 0.0 | 0.00 | 0.20 | 0.03 | 78 | 1017.8 |
| 20260905153031 | 13 | 174 | 0.0 | 0.0 | 0.00 | 0.20 | 0.03 | 79 | 1017.7 |
| 20260905151520 | 13 | 174 | 0.0 | 0.0 | 0.00 | 0.20 | 0.03 | 80 | 1017.6 |
| 20260905150018 | 13 | 174 | 0.0 | 0.0 | 0.00 | 0.23 | 0.03 | 80 | 1017.7 |
| 20260905144510 | 13 | 174 | 0.0 | 0.0 | 0.00 | 0.23 | 0.03 | 80 | 1017.6 |
| 20260905143012 | 12 | 174 | 0.0 | 0.0 | 0.03 | 0.23 | 0.03 | 80 | 1017.6 |
| 20260905141508 | 12 | 174 | 0.0 | 0.0 | 0.03 | 0.23 | 0.03 | 80 | 1017.5 |
| 20260905140030 | 12 | 174 | 0.0 | 0.0 | 0.03 | 0.23 | 0.03 | 80 | 1017.5 |
| 20260905134528 | 12 | 174 | 0.0 | 0.0 | 0.03 | 0.23 | 0.03 | 80 | 1017.5 |
| 20260905133024 | 12 | 174 | 0.0 | 0.0 | 0.00 | 0.20 | 0.00 | 79 | 1017.4 |
| 20260905131540 | 12 | 174 | 0.0 | 0.0 | 0.00 | 0.20 | 0.00 | 79 | 1017.4 |
| 20260905130019 | 12 | 174 | 0.0 | 0.0 | 0.00 | 0.20 | 0.00 | 79 | 1017.2 |
| 20260905124517 | 12 | 174 | 0.0 | 0.0 | 0.00 | 0.20 | 0.00 | 79 | 1017.2 |
| 20260905123012 | 12 | 174 | 0.0 | 0.0 | 0.00 | 0.20 | 0.00 | 79 | 1017.1 |
| 20260905121531 | 12 | 174 | 0.0 | 0.0 | 0.00 | 0.20 | 0.00 | 79 | 1017.0 |
| 20260905120030 | 12 | 174 | 0.0 | 0.0 | 0.00 | 0.20 | 0.00 | 79 | 1016.9 |
| 20260905114539 | 12 | 174 | 0.0 | 0.0 | 0.00 | 0.20 | 0.00 | 79 | 1017.2 |
| 20260905113035 | 12 | 174 | 0.0 | 0.0 | 0.00 | 0.20 | 0.00 | 79 | 1017.0 |
| 20260905111526 | 12 | 174 | 0.0 | 0.0 | 0.00 | 0.20 | 0.00 | 79 | 1016.8 |
| 20260905110019 | 12 | 174 | 0.0 | 0.0 | 0.00 | 0.20 | 0.00 | 79 | 1017.0 |
| 20260905104521 | 12 | 174 | 0.0 | 0.0 | 0.00 | 0.20 | 0.00 | 79 | 1017.0 |
| 20260905103034 | 12 | 174 | 0.0 | 0.0 | 0.00 | 0.23 | 0.00 | 79 | 1017.0 |
| 20260905101541 | 12 | 174 | 0.0 | 0.0 | 0.00 | 0.25 | 0.00 | 78 | 1017.0 |
| 20260905100031 | 12 | 174 | 0.0 | 0.0 | 0.00 | 0.28 | 0.00 | 78 | 1016.8 |
| 20260905094530 | 12 | 174 | 0.0 | 0.0 | 0.00 | 0.28 | 0.00 | 77 | 1016.9 |
| 20260905093033 | 12 | 174 | 0.0 | 0.0 | 0.00 | 0.28 | 0.00 | 76 | 1016.9 |
| 20260905091526 | 12 | 174 | 0.0 | 0.0 | 0.00 | 0.30 | 0.00 | 76 | 1016.8 |
| 20260905090020 | 12 | 174 | 0.0 | 0.0 | 0.00 | 0.33 | 0.00 | 76 | 1016.8 |
| 20260905084536 | 12 | 174 | 0.0 | 0.0 | 0.00 | 0.38 | 0.00 | 75 | 1016.8 |
| 20260905083003 | 12 | 174 | 0.0 | 0.0 | 0.00 | 0.46 | 0.00 | 75 | 1016.7 |
| 20260905081502 | 12 | 174 | 0.0 | 0.0 | 0.00 | 0.48 | 0.00 | 75 | 1016.6 |
| 20260905080008 | 13 | 174 | 0.0 | 0.0 | 0.00 | 0.48 | 0.00 | 75 | 1016.6 |
| 20260905074506 | 13 | 176 | 0.0 | 0.0 | 0.00 | 0.48 | 0.00 | 75 | 1016.4 |
| 20260905073004 | 13 | 176 | 0.0 | 0.0 | 0.00 | 0.48 | 0.00 | 75 | 1016.4 |
| 20260905071508 | 13 | 176 | 0.0 | 0.0 | 0.00 | 0.48 | 0.00 | 75 | 1016.4 |
| 20260905070003 | 13 | 151 | 0.0 | 0.0 | 0.00 | 0.48 | 0.00 | 75 | 1016.4 |
| 20260905064503 | 13 | 151 | 0.0 | 0.0 | 0.00 | 0.51 | 0.48 | 75 | 1016.4 |
| 20260905063004 | 13 | 151 | 0.0 | 0.0 | 0.00 | 0.51 | 0.48 | 75 | 1016.3 |
| 20260905061512 | 13 | 151 | 0.0 | 0.0 | 0.00 | 0.51 | 0.48 | 74 | 1016.3 |
| 20260905060018 | 13 | 151 | 0.0 | 0.0 | 0.00 | 0.51 | 0.48 | 75 | 1016.3 |
| 20260905054508 | 12 | 151 | 0.0 | 0.0 | 0.00 | 0.51 | 0.48 | 75 | 1016.2 |
| 20260905053015 | 12 | 152 | 0.0 | 0.0 | 0.00 | 0.51 | 0.48 | 75 | 1016.1 |
| 20260905051504 | 12 | 152 | 0.0 | 0.0 | 0.00 | 0.51 | 0.48 | 75 | 1016.0 |
| 20260905050003 | 12 | 151 | 0.0 | 0.0 | 0.00 | 0.51 | 0.48 | 75 | 1016.1 |
| 20260905044503 | 12 | 152 | 0.0 | 0.0 | 0.00 | 0.51 | 0.48 | 74 | 1016.0 |
| 20260905043018 | 12 | 152 | 0.0 | 0.0 | 0.00 | 0.51 | 0.48 | 74 | 1015.9 |
| 20260905041514 | 13 | 152 | 0.0 | 0.0 | 0.00 | 0.51 | 0.48 | 74 | 1015.8 |
| 20260905040018 | 13 | 152 | 0.0 | 0.0 | 0.00 | 0.51 | 0.48 | 73 | 1015.6 |
| 20260905034506 | 13 | 151 | 0.0 | 0.0 | 0.00 | 0.51 | 0.48 | 72 | 1015.4 |
| 20260905033004 | 14 | 152 | 0.0 | 0.0 | 0.00 | 0.53 | 0.48 | 72 | 1015.3 |
| 20260905031505 | 14 | 160 | 0.0 | 0.0 | 0.00 | 0.56 | 0.48 | 72 | 1015.2 |
| 20260905030004 | 15 | 136 | 0.0 | 0.0 | 0.00 | 0.58 | 0.48 | 71 | 1015.1 |
| 20260905024531 | 15 | 134 | 0.0 | 3.2 | 0.00 | 0.61 | 0.48 | 70 | 1015.0 |